Tillbaka till svenska Fidonet
English   Information   Debug  
FILM   0/18
FNEWS_PUBLISH   4461
FN_SYSOP   41736
FN_SYSOP_OLD1   71952
FTP_FIDO   0/2
FTSC_PUBLIC   0/13627
FUNNY   0/4886
GENEALOGY.EUR   0/71
GET_INFO   105
GOLDED   0/408
HAM   0/16084
HOLYSMOKE   0/6791
HOT_SITES   0/1
HTMLEDIT   0/71
HUB203   466
HUB_100   264
HUB_400   39
HUMOR   0/29
IC   0/2851
INTERNET   0/424
INTERUSER   0/3
IP_CONNECT   719
JAMNNTPD   0/233
JAMTLAND   0/47
KATTY_KORNER   0/41
LAN   0/16
LINUX-USER   0/19
LINUXHELP   0/1155
LINUX   0/22120
LINUX_BBS   0/957
mail   18.68
mail_fore_ok   249
MENSA   0/341
MODERATOR   0/102
MONTE   0/992
MOSCOW_OKLAHOMA   0/1245
MUFFIN   0/783
MUSIC   0/321
N203_STAT   932
N203_SYSCHAT   313
NET203   321
NET204   69
NET_DEV   0/10
NORD.ADMIN   0/101
NORD.CHAT   0/2572
NORD.FIDONET   189
NORD.HARDWARE   0/28
NORD.KULTUR   0/114
NORD.PROG   0/32
NORD.SOFTWARE   0/88
NORD.TEKNIK   0/58
NORD   0/453
OCCULT_CHAT   0/93
OS2BBS   0/787
OS2DOSBBS   0/580
OS2HW   0/42
OS2INET   0/37
OS2LAN   0/134
OS2PROG   0/36
OS2REXX   0/113
OS2USER-L   207
OS2   0/4794
OSDEBATE   0/18996
PASCAL   0/490
PERL   0/457
PHP   0/45
POINTS   0/405
POLITICS   0/29554
POL_INC   0/14731
PSION   103
R20_ADMIN   1124
R20_AMATORRADIO   0/2
R20_BEST_OF_FIDONET   13
R20_CHAT   0/893
R20_DEPP   0/3
R20_DEV   399
R20_ECHO2   1379
R20_ECHOPRES   0/35
R20_ESTAT   0/719
R20_FIDONETPROG...
...RAM.MYPOINT
  0/2
R20_FIDONETPROGRAM   0/22
R20_FIDONET   0/248
R20_FILEFIND   0/24
R20_FILEFOUND   0/22
R20_HIFI   0/3
R20_INFO2   3268
R20_INTERNET   0/12940
R20_INTRESSE   0/60
R20_INTR_KOM   0/99
R20_KANDIDAT.CHAT   42
R20_KANDIDAT   28
R20_KOM_DEV   112
R20_KONTROLL   0/13318
R20_KORSET   0/18
R20_LOKALTRAFIK   0/24
R20_MODERATOR   0/1852
R20_NC   76
R20_NET200   245
R20_NETWORK.OTH...
...ERNETS
  0/13
R20_OPERATIVSYS...
...TEM.LINUX
  0/44
R20_PROGRAMVAROR   0/1
R20_REC2NEC   534
R20_SFOSM   0/341
R20_SF   0/108
R20_SPRAK.ENGLISH   0/1
R20_SQUISH   107
R20_TEST   2
R20_WORST_OF_FIDONET   12
RAR   0/9
RA_MULTI   106
RA_UTIL   0/162
REGCON.EUR   0/2056
REGCON   0/13
SCIENCE   0/1206
SF   0/239
SHAREWARE_SUPPORT   0/5146
SHAREWRE   0/14
SIMPSONS   0/169
STATS_OLD1   0/2539.065
STATS_OLD2   0/2530
STATS_OLD3   0/2395.095
STATS_OLD4   0/1692.25
SURVIVOR   0/495
SYSOPS_CORNER   0/3
SYSOP   0/84
TAGLINES   0/112
TEAMOS2   0/4530
TECH   0/2617
TEST.444   0/105
TRAPDOOR   0/19
TREK   0/755
TUB   0/290
UFO   0/40
UNIX   0/1316
USA_EURLINK   0/102
USR_MODEMS   0/1
VATICAN   0/2740
VIETNAM_VETS   0/14
VIRUS   0/378
VIRUS_INFO   0/201
VISUAL_BASIC   0/473
WHITEHOUSE   0/5187
WIN2000   0/101
WIN32   0/30
WIN95   0/4290
WIN95_OLD1   0/70272
WINDOWS   0/1517
WWB_SYSOP   0/419
WWB_TECH   0/810
ZCC-PUBLIC   0/1
ZEC   4

 
4DOS   0/134
ABORTION   0/7
ALASKA_CHAT   0/506
ALLFIX_FILE   0/1313
ALLFIX_FILE_OLD1   0/7997
ALT_DOS   0/152
AMATEUR_RADIO   0/1039
AMIGASALE   0/14
AMIGA   0/331
AMIGA_INT   0/1
AMIGA_PROG   0/20
AMIGA_SYSOP   0/26
ANIME   0/15
ARGUS   0/924
ASCII_ART   0/340
ASIAN_LINK   0/651
ASTRONOMY   0/417
AUDIO   0/92
AUTOMOBILE_RACING   0/105
BABYLON5   0/17862
BAG   135
BATPOWER   0/361
BBBS.ENGLISH   0/382
BBSLAW   0/109
BBS_ADS   0/5290
BBS_INTERNET   0/507
BIBLE   0/3563
BINKD   0/1119
BINKLEY   0/215
BLUEWAVE   0/2173
CABLE_MODEMS   0/25
CBM   0/46
CDRECORD   0/66
CDROM   0/20
CLASSIC_COMPUTER   0/378
COMICS   0/15
CONSPRCY   0/899
COOKING   33710
COOKING_OLD1   0/24719
COOKING_OLD2   0/40862
COOKING_OLD3   0/37489
COOKING_OLD4   0/35496
COOKING_OLD5   9370
C_ECHO   0/189
C_PLUSPLUS   0/31
DIRTY_DOZEN   0/201
DOORGAMES   0/2065
DOS_INTERNET   0/196
duplikat   6002
ECHOLIST   0/18295
EC_SUPPORT   0/318
ELECTRONICS   0/359
ELEKTRONIK.GER   1534
ENET.LINGUISTIC   0/13
ENET.POLITICS   0/4
ENET.SOFT   0/11701
ENET.SYSOP   33963
ENET.TALKS   0/32
ENGLISH_TUTOR   0/2000
EVOLUTION   0/1335
FDECHO   0/217
FDN_ANNOUNCE   0/7068
FIDONEWS   24191
FIDONEWS_OLD1   0/49742
FIDONEWS_OLD2   0/35949
FIDONEWS_OLD3   0/30874
FIDONEWS_OLD4   0/37224
FIDO_SYSOP   12852
FIDO_UTIL   0/180
FILEFIND   0/209
FILEGATE   0/212
Möte HAM, 16084 texter
 lista första sista föregående nästa
Text 1030, 763 rader
Skriven 2006-05-26 03:00:37 av Amsat List (1:323/120.0)
Ärende: 
========
SB KEPS @ AMSAT  $ORB06145.O
Orbital Elements  06145.OSCAR

HR AMSAT ORBITAL ELEMENTS FOR OSCAR SATELLITES
FROM WA5QGD FORT WORTH,TX May 25, 2006
Send SUBSCRIBE KEPS/UNSUBSCRIBE KEPS to majordomo@amsat.org only
BID: ORB06145.O
TO ALL RADIO AMATEURS BT

Satellite: AO-07
Catalog number: 07530
Epoch time:      06144.72343410
Element set:     587
Inclination:      101.5688 deg
RA of node:       188.2389 deg
Eccentricity:    0.0011842
Arg of perigee:   292.6398 deg
Mean anomaly:     067.3421 deg
Mean motion:   12.53571813 rev/day
Decay rate:       -2.8e-07 rev/day^2
Epoch rev:           44244
Checksum:              303

Satellite: AO-10
Catalog number: 14129
Epoch time:      06144.48833927
Element set:     284
Inclination:      027.4215 deg
RA of node:       333.5534 deg
Eccentricity:    0.6032061
Arg of perigee:   287.6195 deg
Mean anomaly:     017.5897 deg
Mean motion:   02.05866736 rev/day
Decay rate:      -4.99e-06 rev/day^2
Epoch rev:           17256
Checksum:              328

Satellite: UO-11
Catalog number: 14781
Epoch time:      06144.85019676
Element set:    0078
Inclination:      098.2064 deg
RA of node:       154.5728 deg
Eccentricity:    0.0009106
Arg of perigee:   347.9477 deg
Mean anomaly:     012.1524 deg
Mean motion:   14.79423254 rev/day
Decay rate:      -1.02e-06 rev/day^2
Epoch rev:           19231
Checksum:              299

Satellite: RS-10/11
Catalog number: 18129
Epoch time:      06144.64271411
Element set:    0997
Inclination:      082.9246 deg
RA of node:       345.5799 deg
Eccentricity:    0.0012086
Arg of perigee:   151.1586 deg
Mean anomaly:     209.0253 deg
Mean motion:   13.72774527 rev/day
Decay rate:        1.9e-07 rev/day^2
Epoch rev:           94792
Checksum:              325

Satellite: RS-15
Catalog number: 23439
Epoch time:      06144.86750226
Element set:    0998
Inclination:      064.8176 deg
RA of node:       274.9385 deg
Eccentricity:    0.0167643
Arg of perigee:   257.9006 deg
Mean anomaly:     100.3090 deg
Mean motion:   11.27551499 rev/day
Decay rate:       -3.9e-07 rev/day^2
Epoch rev:           46991
Checksum:              340

Satellite: FO-29
Catalog number: 24278
Epoch time:      06144.94934024
Element set:    0261
Inclination:      098.5119 deg
RA of node:       152.6914 deg
Eccentricity:    0.0351392
Arg of perigee:   010.1622 deg
Mean anomaly:     350.6387 deg
Mean motion:   13.52921011 rev/day
Decay rate:       -5.2e-07 rev/day^2
Epoch rev:           48240
Checksum:              283

Satellite: SO-33
Catalog number: 25509
Epoch time:      06144.67626594
Element set:     659
Inclination:      031.4352 deg
RA of node:       262.2088 deg
Eccentricity:    0.0355440
Arg of perigee:   270.9898 deg
Mean anomaly:     085.0051 deg
Mean motion:   14.28107666 rev/day
Decay rate:       2.45e-06 rev/day^2
Epoch rev:           39567
Checksum:              328

Satellite: AO-40
Catalog number: 26609
Epoch time:      06143.73468894
Element set:    0726
Inclination:      006.7906 deg
RA of node:       240.1584 deg
Eccentricity:    0.7945081
Arg of perigee:   163.2729 deg
Mean anomaly:     260.3606 deg
Mean motion:   01.25586284 rev/day
Decay rate:      -2.61e-06 rev/day^2
Epoch rev:           02554
Checksum:              321

Satellite: VO-52
Catalog number: 28650
Epoch time:      06144.74655525
Element set:    0336
Inclination:      097.8717 deg
RA of node:       218.1964 deg
Eccentricity:    0.0028552
Arg of perigee:   078.3651 deg
Mean anomaly:     282.0764 deg
Mean motion:   14.81115098 rev/day
Decay rate:       -7.8e-07 rev/day^2
Epoch rev:           05691
Checksum:              331

/EX
SB KEPS @ AMSAT  $ORB06145.D
Orbital Elements  06145.MICROS

HR AMSAT ORBITAL ELEMENTS FOR THE MICROSATS
FROM WA5QGD FORT WORTH,TX May 25, 2006
Send SUBSCRIBE KEPS/UNSUBSCRIBE KEPS to majordomo@amsat.org only
BID: ORB06145.D
TO ALL RADIO AMATEURS BT

Satellite: AO-16
Catalog number: 20439
Epoch time:      06144.59777286
Element set:     753
Inclination:      098.1867 deg
RA of node:       155.8681 deg
Eccentricity:    0.0009993
Arg of perigee:   266.6222 deg
Mean anomaly:     093.3819 deg
Mean motion:   14.31721677 rev/day
Decay rate:        3.0e-08 rev/day^2
Epoch rev:           85294
Checksum:              350

Satellite: WO-18
Catalog number: 20441
Epoch time:      06144.65521605
Element set:    0954
Inclination:      098.1872 deg
RA of node:       160.5355 deg
Eccentricity:    0.0010603
Arg of perigee:   266.4411 deg
Mean anomaly:     093.5561 deg
Mean motion:   14.31792213 rev/day
Decay rate:       -1.0e-08 rev/day^2
Epoch rev:           85301
Checksum:              270

Satellite: LO-19
Catalog number: 20442
Epoch time:      06144.63191676
Element set:    0693
Inclination:      098.1896 deg
RA of node:       165.3546 deg
Eccentricity:    0.0010933
Arg of perigee:   264.7029 deg
Mean anomaly:     095.2907 deg
Mean motion:   14.31965225 rev/day
Decay rate:        4.9e-07 rev/day^2
Epoch rev:           85308
Checksum:              329

Satellite: UO-22
Catalog number: 21575
Epoch time:      06144.76514307
Element set:     707
Inclination:      098.2937 deg
RA of node:       103.2066 deg
Eccentricity:    0.0007772
Arg of perigee:   133.9315 deg
Mean anomaly:     226.2511 deg
Mean motion:   14.39549266 rev/day
Decay rate:        2.8e-07 rev/day^2
Epoch rev:           77964
Checksum:              312

Satellite: KO-23
Catalog number: 22077
Epoch time:      06144.50702755
Element set:    0801
Inclination:      066.0830 deg
RA of node:       151.6400 deg
Eccentricity:    0.0000633
Arg of perigee:   146.5197 deg
Mean anomaly:     213.5867 deg
Mean motion:   12.86436791 rev/day
Decay rate:       -3.7e-07 rev/day^2
Epoch rev:           64749
Checksum:              294

